Regional Weather Roundup
Issued by NWS

Home | Current Version | Previous Version | Graphics & Text | Print | Product List | Glossary On
Versions: 1 2 3 4 5 6 7 8 9 10 11 12 13 14 15 16 17 18 19 20 21 22 23 24 25 26 27 28 29 30 31 32 33 34 35 36 37 38 39 40 41 42 43 44 45 46 47 48 49 50
000
ASUS43 KLOT 231609
RWRIL

ILLINOIS REGIONAL WEATHER ROUNDUP
NATIONAL WEATHER SERVICE CHICAGO/ROMEOVILLE IL
1100 AM CDT TUE AUG 23 2016

NOTE: "FAIR" INDICATES FEW OR NO CLOUDS BELOW 12,000 FEET WITH NO
SIGNIFICANT WEATHER AND/OR OBSTRUCTIONS TO VISIBILITY.

* THESE STATIONS ARE NOT UNDER NWS QUALITY CONTROL. THEY ALSO MAY NOT
  REPORT WEATHER SUCH AS PRECIPITATION OR FOG.

ILZ001-002-007-009-015-016-024-231700-
NORTHWEST ILLINOIS

CITY           SKY/WX    TMP DP  RH WIND       PRES   REMARKS
MOLINE         SUNNY     77  64  64 S12       30.15F
STERLING*      SUNNY     77  64  64 S9        30.19S
SAVANNA*       SUNNY     78  64  62 S9        30.16  HX  80
$$

ILZ003-004-008-010-011-017-018-231700-
NORTH CENTRAL ILLINOIS

CITY           SKY/WX    TMP DP  RH WIND       PRES   REMARKS
ROCKFORD       MOSUNNY   75  63  66 SW13      30.20S
FREEPORT*      MOSUNNY   75  64  69 S12       30.19F
ROCHELLE*      MOSUNNY   74  64  71 S15       30.21S
DE KALB*       SUNNY     75  64  67 S15       30.22S
$$

ILZ005-006-012>014-019>023-231700-
NORTHEAST ILLINOIS

CITY           SKY/WX    TMP DP  RH WIND       PRES   REMARKS
CHICAGO-OHARE  MOSUNNY   76  60  57 S15       30.21F
CHICAGO-MIDWAY MOSUNNY   78  59  51 S16       30.22S
AURORA         SUNNY     77  63  61 S12G18    30.22F
LANSING*       SUNNY     75  61  61 SW10G16   30.24S
JOLIET*        SUNNY     78  64  61 SW9       30.23S HX  80
WAUKEGAN       SUNNY     79  61  53 S15       30.19F HX  80
DUPAGE AIRPORT SUNNY     77  60  55 S14       30.21F
KANKAKEE*      SUNNY     78  64  63 S8        30.25S
WHEELING       SUNNY     77  59  53 S16       30.22F
MORRIS*        SUNNY     77  63  62 S9        30.22S
ROMEOVILLE*    SUNNY     76  61  58 SW9       30.23S
NORTHERLY ISL    N/A     76  58  53 S12         N/A
$$

LMZ740>746-231700-
SOUTHERN LAKE MICHIGAN

STATION/POSITION SKY/WX   TEMP    WIND        PRES    VSBY  WAVE
                          AIR SEA DIR/SP/G                  HT/PER
                          (F)     (DEG/KT/KT) (MB)    (MI)  (FT/S)
SOUTHERN BUOY              73 74  180/ 17/ 21 1022.5R         3/ 5
WILMETTE HARBOR            75 72  220/ 12/ 16   N/A           2/ 3
HARRISON CRIB              73     200/ 11/ 12   N/A
BURNHAM HARBOR             77     180/ 10/ 14   N/A
CALUMET HARBOR             74     190/  9/ 12 1023.1S
BURNS HARBOR               73     200/ 11/ 14 1024.4S
MICHIGAN CITY              72     170/ 11/ 12   N/A
MICHIGAN CITY 6N           72 73  190/ 10/ 12   N/A           1
ST. JOSEPH                 74 75  190/ 12/ 14 1024.0S         2/ 4
$$

ILZ025>027-034>036-040-047-049-050-058-095>099-231700-
WEST-CENTRAL ILLINOIS

CITY           SKY/WX    TMP DP  RH WIND       PRES   REMARKS
QUINCY         PTSUNNY   76  66  71 SE14      30.15F
GALESBURG*     SUNNY     76  63  63 S13       30.18S
MACOMB*        MOSUNNY   75  63  66 S16       30.20S
JACKSONVILLE*  PTSUNNY   76  65  67 SE13      30.19F
PITTSFIELD*    CLOUDY    73  65  77 SE8       30.19S
$$

ILZ028>032-037-038-041>044-048-051>054-059>061-231700-
CENTRAL ILLINOIS

CITY           SKY/WX    TMP DP  RH WIND       PRES   REMARKS
PONTIAC        SUNNY     77  66  68 S10       30.24S
BLOOMINGTON    MOSUNNY   76  64  66 S15       30.24F
DECATUR        CLOUDY    78  62  57 S12       30.24S HX  80
PEORIA         SUNNY     77  63  61 S13       30.20F
LACON*         SUNNY     76  61  58 SW12G17   30.20F
LINCOLN*       SUNNY     78  65  64 S12       30.22S HX  80
SPRINGFIELD    MOSUNNY   78  64  61 S10       30.21S HX  80
TAYLORVILLE    SUNNY     77  64  64 S13       30.22F
$$

ILZ033-039-045-046-055>057-062-063-231700-
EAST-CENTRAL ILLINOIS

CITY           SKY/WX    TMP DP  RH WIND       PRES   REMARKS
CHAMPAIGN      CLOUDY    75  64  68 S14       30.26S
RANTOUL*       MOSUNNY   77  66  67 S8        30.25F
MATTOON        MOSUNNY   76  61  59 S13       30.26S
PARIS*         SUNNY     76  66  70 S6        30.28S
$$

ILZ079-100>102-231700-
SOUTHWEST ILLINOIS

CITY           SKY/WX    TMP DP  RH WIND       PRES   REMARKS
ALTON          CLOUDY    73  64  73 S9        30.22F
BELLEVILLE     PTSUNNY   76  65  67 S12       30.20F
CAHOKIA*       LGT RAIN  71  65  81 SE7       30.21S
SPARTA*        CLOUDY    72  65  79 SE8       30.23F
$$

ILZ064>066-069>071-074>076-080>082-084>086-088>090-092>094-231700-
SOUTH-CENTRAL ILLINOIS

CITY           SKY/WX    TMP DP  RH WIND       PRES   REMARKS
CARBONDALE     CLOUDY    73  65  75 S8        30.24S
CAIRO*         CLOUDY    74  68  81 E5        30.23F
EFFINGHAM*     SUNNY     78  63  59 SE8       30.26S HX  80
MARION         CLOUDY    75  66  73 SE7       30.25S
MT. VERNON     MOSUNNY   81  63  54 SE12      30.26S HX  82
CENTRALIA*     MOSUNNY   78  66  65 S13       30.23S HX  80
SALEM*         SUNNY     78  63  58 S7        30.24S HX  80
$$

ILZ067-068-072-073-078-083-087-091-231700-
SOUTHEAST ILLINOIS

CITY           SKY/WX    TMP DP  RH WIND       PRES   REMARKS
LAWRENCEVILLE  SUNNY     79  62  56 S10       30.27S HX  80
FLORA*         SUNNY     79  66  62 SE13      30.25S HX  81
FAIRFIELD*     MOSUNNY   78  63  61 SE7       30.24F
HARRISBURG*    CLOUDY    75  66  72 SE6       30.26S
ROBINSON*      SUNNY     76  65  68 S9        30.27S
CARMI*         MOSUNNY   78  65  62 SE8       30.25F HX  80
$$

ABBREVIATIONS USED IN REMARKS
   TC - TEMPERATURE IN CELSIUS
  WCI - WIND CHILL INDEX
   HX - HEAT INDEX
  VSB - VISIBILITY
$$





USA.gov is the U.S. government's official web portal to all federal, state and local government web resources and services.